FW1746 Weather Reports


time (UTC)temp
F
wind
direction
speed
knots
gust
knots
rain 1hr
in
rain 24hr
in
rain mn
in
humidity
%
barometer
mb
20260506190100 49 234 4.3 10.4 0.00 0.00 0.00 56 1012.5
20260506184558 50 195 0.0 2.6 0.00 0.00 0.00 65 1012.4
20260506183057 50 159 0.0 1.7 0.00 0.00 0.00 65 1012.2
20260506181555 51 159 0.0 2.6 0.00 0.00 0.00 66 1012.2
20260506180005 52 156 0.0 2.6 0.00 0.00 0.00 67 1012.1
20260506174504 53 159 0.9 3.5 0.00 0.00 0.00 60 1012.1
20260506173004 54 160 1.7 5.2 0.00 0.00 0.00 57 1011.9
20260506171505 55 157 2.6 7.0 0.00 0.00 0.00 55 1011.9
20260506170059 55 176 2.6 6.1 0.00 0.00 0.00 54 1012.0
20260506164557 55 161 3.5 7.8 0.00 0.00 0.00 52 1012.1
20260506163100 55 173 3.5 9.6 0.00 0.00 0.00 49 1012.2
20260506161558 55 173 3.5 8.7 0.00 0.00 0.00 48 1012.3
20260506160106 55 173 4.3 9.6 0.00 0.00 0.00 47 1012.3
20260506154553 53 150 3.5 7.8 0.00 0.00 0.00 64 1012.5
20260506153051 52 166 2.6 4.3 0.00 0.00 0.00 69 1012.5
20260506151549 51 126 5.2 8.7 0.00 0.00 0.00 72 1012.6
20260506150007 51 130 4.3 7.8 0.00 0.00 0.00 72 1012.7
20260506144501 52 149 3.5 7.8 0.00 0.00 0.00 69 1012.9
20260506143059 54 134 2.6 7.0 0.00 0.00 0.00 66 1013.0
20260506141558 55 135 4.3 7.8 0.00 0.00 0.00 62 1013.0
20260506140042 55 144 5.2 7.8 0.00 0.00 0.00 60 1013.2
20260506134605 55 175 5.2 9.6 0.00 0.00 0.00 56 1013.3
20260506133030 55 115 5.2 8.7 0.00 0.00 0.00 55 1013.4
20260506131528 54 150 5.2 10.4 0.00 0.00 0.00 55 1013.6
20260506130056 54 156 5.2 9.6 0.00 0.00 0.00 47 1013.6
20260506124552 53 160 6.1 12.2 0.00 0.00 0.00 43 1013.6
20260506123048 52 179 5.2 8.7 0.00 0.00 0.00 46 1013.7
20260506121544 52 195 5.2 9.6 0.00 0.00 0.00 47 1013.8
20260506120014 51 165 5.2 10.4 0.00 0.00 0.00 51 1013.9
20260506114521 51 142 4.3 8.7 0.00 0.00 0.00 55 1013.9
20260506113008 52 157 4.3 8.7 0.00 0.00 0.00 54 1013.9
20260506111507 51 156 4.3 8.7 0.00 0.00 0.00 53 1013.9
20260506110014 51 157 3.5 7.0 0.00 0.00 0.00 56 1014.0
20260506104508 50 145 3.5 7.0 0.00 0.00 0.00 54 1014.0
20260506103018 48 163 3.5 7.0 0.00 0.00 0.00 56 1014.0
20260506101506 48 138 6.1 8.7 0.00 0.00 0.00 52 1014.0
20260506100006 48 131 4.3 7.8 0.00 0.00 0.00 50 1014.0
20260506094509 47 131 4.3 7.8 0.00 0.00 0.00 50 1013.9
20260506093005 47 128 5.2 7.8 0.00 0.00 0.00 51 1014.0
20260506091505 47 134 2.6 7.8 0.00 0.00 0.00 53 1014.0
20260506090006 47 144 5.2 7.0 0.00 0.00 0.00 51 1014.0
20260506084506 47 146 4.3 7.0 0.00 0.00 0.00 49 1014.0
20260506083006 48 166 3.5 7.0 0.00 0.00 0.00 50 1014.0
20260506081506 47 122 1.7 6.1 0.00 0.00 0.00 49 1014.0
20260506073019 46 68 2.6 5.2 0.00 0.00 0.00 49 1014.1
20260506071520 45 54 1.7 3.5 0.00 0.00 0.00 51 1014.0
20260506061510 42 290 0.9 7.0 0.00 0.00 0.00 56 1013.9
20260506050108 37 240 1.7 5.2 0.00 0.00 0.00 68 1014.0
20260506044601 36 240 1.7 4.3 0.00 0.00 0.00 69 1014.0
20260506043059 36 277 0.0 7.0 0.00 0.00 0.00 69 1014.0
20260506041603 36 273 2.6 7.0 0.00 0.00 0.00 69 1013.9
20260506040101 35 254 4.3 7.8 0.00 0.00 0.00 70 1013.9
20260506034601 35 257 2.6 7.8 0.00 0.00 0.00 70 1013.7
20260506033054 36 254 3.5 7.8 0.00 0.00 0.00 69 1013.8
20260506031552 36 254 3.5 6.1 0.00 0.00 0.00 68 1013.7
20260506030053 36 242 3.5 9.6 0.00 0.00 0.00 68 1013.6
20260506024559 36 246 4.3 9.6 0.00 0.00 0.00 68 1013.6
20260506023048 37 236 4.3 9.6 0.00 0.00 0.00 68 1013.7
20260506021545 37 246 4.3 8.7 0.00 0.00 0.00 68 1013.7
20260506020040 37 265 3.5 8.7 0.00 0.00 0.00 68 1013.6
20260506014535 37 248 2.6 7.8 0.00 0.00 0.00 67 1013.7
20260506013034 38 242 2.6 7.8 0.00 0.00 0.00 66 1013.6
20260506011558 38 239 2.6 8.7 0.00 0.00 0.00 66 1013.5
20260506010047 38 244 4.3 10.4 0.00 0.00 0.00 65 1013.3
20260506004558 38 242 2.6 6.1 0.00 0.00 0.00 66 1013.4
20260506003041 38 236 1.7 8.7 0.00 0.00 0.00 65 1013.4
20260506001543 39 236 2.6 11.3 0.00 0.00 0.00 64 1013.4
20260506000056 39 246 5.2 8.7 0.00 0.00 0.00 63 1013.4
20260505234541 39 229 1.7 8.7 0.00 0.00 0.00 63 1013.4
20260505233028 39 237 2.6 7.8 0.00 0.00 0.00 63 1013.5
20260505231526 40 235 3.5 8.7 0.00 0.00 0.00 61 1013.4
20260505230018 40 234 2.6 7.8 0.00 0.00 0.00 60 1013.5
20260505224511 40 238 3.5 7.8 0.00 0.00 0.00 59 1013.5
20260505223008 41 243 1.7 4.3 0.00 0.00 0.00 58 1013.4
20260505221504 41 226 0.9 3.5 0.00 0.00 0.00 56 1013.3
20260505220010 42 259 0.9 7.8 0.00 0.00 0.00 55 1013.3
20260505214511 43 238 1.7 7.0 0.00 0.00 0.00 54 1013.2
20260505213004 43 251 2.6 14.8 0.00 0.00 0.00 52 1013.1
20260505211601 43 262 6.1 11.3 0.00 0.00 0.00 51 1013.0
20260505210100 44 244 5.2 10.4 0.00 0.00 0.00 50 1012.9
20260505204601 44 234 5.2 14.8 0.00 0.00 0.00 49 1012.8
20260505203101 45 240 7.8 13.0 0.00 0.00 0.00 48 1012.8
20260505201552 45 260 5.2 11.3 0.00 0.00 0.00 47 1012.7
20260505200047 45 244 4.3 8.7 0.00 0.00 0.00 51 1012.7
20260505194553 47 229 0.9 4.3 0.00 0.00 0.00 48 1012.5
20260505193039 47 231 0.9 8.7 0.00 0.00 0.00 46 1012.5
20260505191547 48 200 1.7 7.8 0.00 0.00 0.00 45 1012.3